Regional Weather Roundup
Issued by NWS

Home | Current Version | Previous Version | Text Only | Print | Product List | Glossary On
Versions: 1 2 3 4 5 6 7 8 9 10 11 12 13 14 15 16 17 18 19 20 21 22 23 24 25 26 27 28 29 30 31 32 33 34 35 36 37 38 39 40 41 42 43 44 45 46 47 48 49 50
000
ASUS44 KJAN 290810
RWRMS

MISSISSIPPI HOURLY WEATHER ROUNDUP
NATIONAL WEATHER SERVICE JACKSON MS
300 AM CDT SAT AUG 29 2015

NOTE: "FAIR: INDICATES FEW OR NO CLOUDS BELOW 12,000 FEET WITH NO
SIGNIFICANT WEATHER AND/OR OBSTRUCTIONS TO VISIBILITY.

MSZ001>002-007>008-010>013-018>021-025>028-034>036-290900-
NORTHWEST MISSISSIPPI

CITY           SKY/WX    TMP DP  RH WIND       PRES   REMARKS
CLARKSDALE       N/A     64  64 100 CALM      30.03S
CLEVELAND      FAIR      69  66  88 E3        30.00S
GREENWOOD      CLEAR     72  63  73 E3        30.01S
GREENVILLE     CLEAR     67  61  81 CALM      30.00S
OLIVE BRANCH   CLEAR     70  70 100 S3        30.03S
OXFORD         FAIR      72  64  78 SE7       30.06R
TUNICA         SUNNY     66  64  94 CALM      30.02F
$$

MSZ003>006-009-014>017-022>024-029>033-037>039-290900-
NORTHEAST MISSISSIPPI

CITY           SKY/WX    TMP DP  RH WIND       PRES   REMARKS
COLUMBUS AFB   CLEAR     72  67  86 SE5       30.04F
CORINTH        FAIR      68  66  94 CALM      30.05S
GOLDN TRIANGLE PTCLDY    73  64  73 SE7       30.05S
STARKVILLE     FAIR      72  68  88 E3        30.05S
TUPELO         CLEAR     74  68  81 S6        30.05S
$$

MSZ040-058-290900-
CENTRAL MISSISSIPPI

CITY           SKY/WX    TMP DP  RH WIND       PRES   REMARKS
JACKSON INTL   CLEAR     71  65  81 CALM      30.02S
JACKSON HAWKNS CLEAR     74  65  73 CALM      30.02S
MERIDIAN KEY   MOCLDY    74  68  81 CALM      30.04S
MERIDIAN NAS   PTCLDY    73  68  84 CALM      30.04S
VICKSBURG      CLEAR     66  64  93 CALM      30.01S
$$

MSZ059>079-290900-
SOUTH MISSISSIPPI

CITY           SKY/WX    TMP DP  RH WIND       PRES   REMARKS
BROOKHAVEN       N/A     70  66  88 CALM      30.04S
HATTIESBURG    PTCLDY    71  66  84 CALM      30.03S
MCCOMB         PTCLDY    67  66  97 CALM      30.03S
NATCHEZ        PTCLDY    66  61  82 S5        30.03R
PINE BELT      CLEAR     66  63  88 CALM      30.04S
$$

MSZ080>082-290900-
COASTAL MISSISSIPPI

CITY           SKY/WX    TMP DP  RH WIND       PRES   REMARKS
BILOXI         CLEAR     80  68  66 S8        30.00F
PASCAGOULA     CLEAR     66  66 100 CALM      30.01F
GULFPORT       CLEAR     79  66  64 S5        30.00F
$$



USA.gov is the U.S. government's official web portal to all federal, state and local government web resources and services.